Year,Month,Day,Hour,Minute,Value (Times are PST for temperature in C)
2008,12,21,00,00,-4.20
2008,12,21,00,01,-4.20
2008,12,21,00,02,-4.20
2008,12,21,00,03,-4.20
2008,12,21,00,04,-4.20
2008,12,21,00,05,-4.20
2008,12,21,00,06,-4.10
2008,12,21,00,07,-4.10
2008,12,21,00,08,-4.20
2008,12,21,00,09,-4.10
2008,12,21,00,10,-4.10
2008,12,21,00,11,-4.20
2008,12,21,00,12,-4.10
2008,12,21,00,13,-4.20
2008,12,21,00,14,-4.20
2008,12,21,00,15,-4.20
2008,12,21,00,16,-4.20
2008,12,21,00,17,-4.20
2008,12,21,00,18,-4.20
2008,12,21,00,19,-4.20
2008,12,21,00,20,-4.20
2008,12,21,00,21,-4.20
2008,12,21,00,22,-4.20
2008,12,21,00,23,-4.20
2008,12,21,00,24,-4.20
2008,12,21,00,25,-4.20
2008,12,21,00,26,-4.20
2008,12,21,00,27,-4.20
2008,12,21,00,28,-4.20
2008,12,21,00,29,-4.20
2008,12,21,00,30,-4.20
2008,12,21,00,31,-4.20
2008,12,21,00,32,-4.20
2008,12,21,00,33,-4.20
2008,12,21,00,34,-4.20
2008,12,21,00,35,-4.20
2008,12,21,00,36,-4.20
2008,12,21,00,37,-4.20
2008,12,21,00,38,-4.20
2008,12,21,00,39,-4.20
2008,12,21,00,40,-4.20
2008,12,21,00,41,-4.10
2008,12,21,00,42,-4.10
2008,12,21,00,43,-4.10
2008,12,21,00,44,-4.10
2008,12,21,00,45,-4.10
2008,12,21,00,46,-4.10
2008,12,21,00,47,-4.10
2008,12,21,00,48,-4.10
2008,12,21,00,49,-4.10
2008,12,21,00,50,-4.10
2008,12,21,00,51,-4.10
2008,12,21,00,52,-4.10
2008,12,21,00,53,-4.10
2008,12,21,00,54,-4.10
2008,12,21,00,55,-4.10
2008,12,21,00,56,-4.10
2008,12,21,00,57,-4.10
2008,12,21,00,58,-4.10
2008,12,21,00,59,-4.10
2008,12,21,01,00,-4.10
2008,12,21,01,01,-4.10
2008,12,21,01,02,-4.10
2008,12,21,01,03,-4.10
2008,12,21,01,04,-4.10
2008,12,21,01,05,-4.10
2008,12,21,01,06,-4.10
2008,12,21,01,07,-4.10
2008,12,21,01,08,-4.10
2008,12,21,01,09,-4.10
2008,12,21,01,10,-4.10
2008,12,21,01,11,-4.10
2008,12,21,01,12,-4.10
2008,12,21,01,13,-4.10
2008,12,21,01,14,-4.10
2008,12,21,01,15,-4.10
2008,12,21,01,16,-4.10
2008,12,21,01,17,-4.10
2008,12,21,01,18,-4.10
2008,12,21,01,19,-4.10
2008,12,21,01,20,-4.10
2008,12,21,01,21,-4.00
2008,12,21,01,22,-4.00
2008,12,21,01,23,-4.00
2008,12,21,01,24,-4.00
2008,12,21,01,25,-4.00
2008,12,21,01,26,-4.00
2008,12,21,01,27,-4.00
2008,12,21,01,28,-4.00
2008,12,21,01,29,-3.90
2008,12,21,01,30,-3.90
2008,12,21,01,31,-3.90
2008,12,21,01,32,-3.90
2008,12,21,01,33,-3.90
2008,12,21,01,34,-3.90
2008,12,21,01,35,-3.90
2008,12,21,01,36,-3.90
2008,12,21,01,37,-3.90
2008,12,21,01,38,-3.90
2008,12,21,01,39,-3.90
2008,12,21,01,40,-3.90
2008,12,21,01,41,-3.90
2008,12,21,01,42,-3.90
2008,12,21,01,43,-3.90
2008,12,21,01,44,-3.90
2008,12,21,01,45,-3.90
2008,12,21,01,46,-3.90
2008,12,21,01,47,-3.90
2008,12,21,01,48,-3.90
2008,12,21,01,49,-3.90
2008,12,21,01,50,-3.90
2008,12,21,01,51,-3.90
2008,12,21,01,52,-4.00
2008,12,21,01,53,-4.00
2008,12,21,01,54,-4.00
2008,12,21,01,55,-4.00
2008,12,21,01,56,-4.00
2008,12,21,01,57,-4.00
2008,12,21,01,58,-4.00
2008,12,21,01,59,-4.00
2008,12,21,02,00,-4.00
2008,12,21,02,01,-4.00
2008,12,21,02,02,-4.00
2008,12,21,02,03,-4.00
2008,12,21,02,04,-4.00
2008,12,21,02,05,-4.00
2008,12,21,02,06,-4.00
2008,12,21,02,07,-4.00
2008,12,21,02,08,-4.00
2008,12,21,02,09,-4.00
2008,12,21,02,10,-4.00
2008,12,21,02,11,-4.00
2008,12,21,02,12,-4.00
2008,12,21,02,13,-4.00
2008,12,21,02,14,-4.00
2008,12,21,02,15,-4.00
2008,12,21,02,16,-4.00
2008,12,21,02,17,-4.00
2008,12,21,02,18,-4.00
2008,12,21,02,19,-4.00
2008,12,21,02,20,-4.00
2008,12,21,02,21,-4.00
2008,12,21,02,22,-4.00
2008,12,21,02,23,-4.00
2008,12,21,02,24,-4.00
2008,12,21,02,25,-3.90
2008,12,21,02,26,-4.00
2008,12,21,02,27,-4.00
2008,12,21,02,28,-4.00
2008,12,21,02,29,-4.00
2008,12,21,02,30,-4.00
2008,12,21,02,31,-4.00
2008,12,21,02,32,-4.00
2008,12,21,02,33,-4.00
2008,12,21,02,34,-4.00
2008,12,21,02,35,-4.00
2008,12,21,02,36,-4.00
2008,12,21,02,37,-4.00
2008,12,21,02,38,-4.00
2008,12,21,02,39,-4.00
2008,12,21,02,40,-4.00
2008,12,21,02,41,-4.10
2008,12,21,02,42,-4.10
2008,12,21,02,43,-4.10
2008,12,21,02,44,-4.10
2008,12,21,02,45,-4.10
2008,12,21,02,46,-4.10
2008,12,21,02,47,-4.10
2008,12,21,02,48,-4.10
2008,12,21,02,49,-4.10
2008,12,21,02,50,-4.10
2008,12,21,02,51,-4.10
2008,12,21,02,52,-4.10
2008,12,21,02,53,-4.10
2008,12,21,02,54,-4.10
2008,12,21,02,55,-4.10
2008,12,21,02,56,-4.10
2008,12,21,02,57,-4.10
2008,12,21,02,58,-4.10
2008,12,21,02,59,-4.10
2008,12,21,03,00,-4.10
2008,12,21,03,01,-4.10
2008,12,21,03,02,-4.10
2008,12,21,03,03,-4.10
2008,12,21,03,04,-4.10
2008,12,21,03,05,-4.10
2008,12,21,03,06,-4.10
2008,12,21,03,07,-4.10
2008,12,21,03,08,-4.10
2008,12,21,03,09,-4.10
2008,12,21,03,10,-4.10
2008,12,21,03,11,-4.10
2008,12,21,03,12,-4.10
2008,12,21,03,13,-4.10
2008,12,21,03,14,-4.10
2008,12,21,03,15,-4.10
2008,12,21,03,16,-4.10
2008,12,21,03,17,-4.10
2008,12,21,03,18,-4.10
2008,12,21,03,19,-4.10
2008,12,21,03,20,-4.10
2008,12,21,03,21,-4.10
2008,12,21,03,22,-4.10
2008,12,21,03,23,-4.20
2008,12,21,03,24,-4.20
2008,12,21,03,25,-4.20
2008,12,21,03,26,-4.20
2008,12,21,03,27,-4.20
2008,12,21,03,28,-4.20
2008,12,21,03,29,-4.20
2008,12,21,03,30,-4.10
2008,12,21,03,31,-4.20
2008,12,21,03,32,-4.20
2008,12,21,03,33,-4.20
2008,12,21,03,34,-4.20
2008,12,21,03,35,-4.20
2008,12,21,03,36,-4.20
2008,12,21,03,37,-4.20
2008,12,21,03,38,-4.20
2008,12,21,03,39,-4.20
2008,12,21,03,40,-4.20
2008,12,21,03,41,-4.20
2008,12,21,03,42,-4.20
2008,12,21,03,43,-4.20
2008,12,21,03,44,-4.20
2008,12,21,03,45,-4.20
2008,12,21,03,46,-4.20
2008,12,21,03,47,-4.20
2008,12,21,03,48,-4.20
2008,12,21,03,49,-4.20
2008,12,21,03,50,-4.20
2008,12,21,03,51,-4.20
2008,12,21,03,52,-4.20
2008,12,21,03,53,-4.20
2008,12,21,03,54,-4.20
2008,12,21,03,55,-4.20
2008,12,21,03,56,-4.20
2008,12,21,03,57,-4.20
2008,12,21,03,58,-4.20
2008,12,21,03,59,-4.20
2008,12,21,04,00,-4.20
2008,12,21,04,01,-4.20
2008,12,21,04,02,-4.20
2008,12,21,04,03,-4.20
2008,12,21,04,04,-4.20
2008,12,21,04,05,-4.20
2008,12,21,04,06,-4.20
2008,12,21,04,07,-4.20
2008,12,21,04,08,-4.20
2008,12,21,04,09,-4.20
2008,12,21,04,10,-4.20
2008,12,21,04,11,-4.20
2008,12,21,04,12,-4.20
2008,12,21,04,13,-4.20
2008,12,21,04,14,-4.20
2008,12,21,04,15,-4.20
2008,12,21,04,16,-4.20
2008,12,21,04,17,-4.20
2008,12,21,04,18,-4.20
2008,12,21,04,19,-4.20
2008,12,21,04,20,-4.20
2008,12,21,04,21,-4.20
2008,12,21,04,22,-4.20
2008,12,21,04,23,-4.20
2008,12,21,04,24,-4.20
2008,12,21,04,25,-4.20
2008,12,21,04,26,-4.20
2008,12,21,04,27,-4.20
2008,12,21,04,28,-4.20
2008,12,21,04,29,-4.20
2008,12,21,04,30,-4.10
2008,12,21,04,31,-4.10
2008,12,21,04,32,-4.10
2008,12,21,04,33,-4.10
2008,12,21,04,34,-4.10
2008,12,21,04,35,-4.10
2008,12,21,04,36,-4.10
2008,12,21,04,37,-4.10
2008,12,21,04,38,-4.10
2008,12,21,04,39,-4.10
2008,12,21,04,40,-4.10
2008,12,21,04,41,-4.10
2008,12,21,04,42,-4.10
2008,12,21,04,43,-4.10
2008,12,21,04,44,-4.10
2008,12,21,04,45,-4.10
2008,12,21,04,46,-4.10
2008,12,21,04,47,-4.10
2008,12,21,04,48,-4.10
2008,12,21,04,49,-4.10
2008,12,21,04,50,-4.10
2008,12,21,04,51,-4.10
2008,12,21,04,52,-4.10
2008,12,21,04,53,-4.10
2008,12,21,04,54,-4.10
2008,12,21,04,55,-4.10
2008,12,21,04,56,-4.10
2008,12,21,04,57,-4.10
2008,12,21,04,58,-4.10
2008,12,21,04,59,-4.10
2008,12,21,05,00,-4.10
2008,12,21,05,01,-4.10
2008,12,21,05,02,-4.10
2008,12,21,05,03,-4.10
2008,12,21,05,04,-4.10
2008,12,21,05,05,-4.10
2008,12,21,05,06,-4.10
2008,12,21,05,07,-4.10
2008,12,21,05,08,-4.10
2008,12,21,05,09,-4.10
2008,12,21,05,10,-4.10
2008,12,21,05,11,-4.10
2008,12,21,05,12,-4.10
2008,12,21,05,13,-4.10
2008,12,21,05,14,-4.10
2008,12,21,05,15,-4.10
2008,12,21,05,16,-4.10
2008,12,21,05,17,-4.10
2008,12,21,05,18,-4.10
2008,12,21,05,19,-4.00
2008,12,21,05,20,-4.00
2008,12,21,05,21,-4.00
2008,12,21,05,22,-4.00
2008,12,21,05,23,-4.00
2008,12,21,05,24,-4.00
2008,12,21,05,25,-4.00
2008,12,21,05,26,-4.00
2008,12,21,05,27,-4.00
2008,12,21,05,28,-4.00
2008,12,21,05,29,-4.00
2008,12,21,05,30,-3.90
2008,12,21,05,31,-3.90
2008,12,21,05,32,-3.90
2008,12,21,05,33,-3.90
2008,12,21,05,34,-3.90
2008,12,21,05,35,-3.90
2008,12,21,05,36,-3.90
2008,12,21,05,37,-3.90
2008,12,21,05,38,-3.90
2008,12,21,05,39,-3.90
2008,12,21,05,40,-3.90
2008,12,21,05,41,-3.90
2008,12,21,05,42,-3.80
2008,12,21,05,43,-3.80
2008,12,21,05,44,-3.90
2008,12,21,05,45,-3.80
2008,12,21,05,46,-3.90
2008,12,21,05,47,-3.90
2008,12,21,05,48,-3.90
2008,12,21,05,49,-3.90
2008,12,21,05,50,-3.90
2008,12,21,05,51,-3.90
2008,12,21,05,52,-3.90
2008,12,21,05,53,-3.90
2008,12,21,05,54,-3.90
2008,12,21,05,55,-3.90
2008,12,21,05,56,-3.90
2008,12,21,05,57,-3.90
2008,12,21,05,58,-3.90
2008,12,21,05,59,-3.90
2008,12,21,06,00,-3.90
2008,12,21,06,01,-3.90
2008,12,21,06,02,-3.90
2008,12,21,06,03,-3.90
2008,12,21,06,04,-3.90
2008,12,21,06,05,-3.90
2008,12,21,06,06,-3.90
2008,12,21,06,07,-3.90
2008,12,21,06,08,-3.90
2008,12,21,06,09,-3.90
2008,12,21,06,10,-3.90
2008,12,21,06,11,-3.90
2008,12,21,06,12,-3.90
2008,12,21,06,13,-3.90
2008,12,21,06,14,-3.90
2008,12,21,06,15,-3.90
2008,12,21,06,16,-3.90
2008,12,21,06,17,-3.90
2008,12,21,06,18,-3.90
2008,12,21,06,19,-3.90
2008,12,21,06,20,-3.90
2008,12,21,06,21,-3.90
2008,12,21,06,22,-4.00
2008,12,21,06,23,-4.00
2008,12,21,06,24,-3.90
2008,12,21,06,25,-4.00
2008,12,21,06,26,-3.90
2008,12,21,06,27,-4.00
2008,12,21,06,28,-4.00
2008,12,21,06,29,-4.00
2008,12,21,06,30,-4.00
2008,12,21,06,31,-4.00
2008,12,21,06,32,-4.00
2008,12,21,06,33,-4.00
2008,12,21,06,34,-4.00
2008,12,21,06,35,-4.00
2008,12,21,06,36,-4.00
2008,12,21,06,37,-4.00
2008,12,21,06,38,-4.00
2008,12,21,06,39,-4.00
2008,12,21,06,40,-4.00
2008,12,21,06,41,-4.00
2008,12,21,06,42,-4.00
2008,12,21,06,43,-4.00
2008,12,21,06,44,-3.90
2008,12,21,06,45,-4.00
2008,12,21,06,46,-4.00
2008,12,21,06,47,-4.00
2008,12,21,06,48,-3.90
2008,12,21,06,49,-4.00
2008,12,21,06,50,-4.00
2008,12,21,06,51,-4.00
2008,12,21,06,52,-4.00
2008,12,21,06,53,-4.00
2008,12,21,06,54,-4.00
2008,12,21,06,55,-4.00
2008,12,21,06,56,-4.00
2008,12,21,06,57,-4.00
2008,12,21,06,58,-4.00
2008,12,21,06,59,-4.00
2008,12,21,07,00,-4.00
2008,12,21,07,01,-4.00
2008,12,21,07,02,-4.00
2008,12,21,07,03,-4.00
2008,12,21,07,04,-4.00
2008,12,21,07,05,-4.00
2008,12,21,07,06,-4.00
2008,12,21,07,07,-4.00
2008,12,21,07,08,-4.00
2008,12,21,07,09,-4.00
2008,12,21,07,10,-4.00
2008,12,21,07,11,-4.00
2008,12,21,07,12,-4.00
2008,12,21,07,13,-4.00
2008,12,21,07,14,-4.00
2008,12,21,07,15,-4.00
2008,12,21,07,16,-4.00
2008,12,21,07,17,-4.00
2008,12,21,07,18,-4.00
2008,12,21,07,19,-4.00
2008,12,21,07,20,-4.00
2008,12,21,07,21,-4.00
2008,12,21,07,22,-4.00
2008,12,21,07,23,-4.00
2008,12,21,07,24,-4.00
2008,12,21,07,25,-4.00
2008,12,21,07,26,-4.00
2008,12,21,07,27,-4.00
2008,12,21,07,28,-4.00
2008,12,21,07,29,-3.90
2008,12,21,07,30,-3.90
2008,12,21,07,31,-3.90
2008,12,21,07,32,-3.90
2008,12,21,07,33,-3.90
2008,12,21,07,34,-3.90
2008,12,21,07,35,-3.90
2008,12,21,07,36,-3.90
2008,12,21,07,37,-3.90
2008,12,21,07,38,-3.90
2008,12,21,07,39,-3.90
2008,12,21,07,40,-3.90
2008,12,21,07,41,-3.90
2008,12,21,07,42,-3.90
2008,12,21,07,43,-3.90
2008,12,21,07,44,-3.90
2008,12,21,07,45,-3.90
2008,12,21,07,46,-3.90
2008,12,21,07,47,-3.90
2008,12,21,07,48,-3.90
2008,12,21,07,49,-3.90
2008,12,21,07,50,-3.90
2008,12,21,07,51,-3.90
2008,12,21,07,52,-3.90
2008,12,21,07,53,-3.90
2008,12,21,07,54,-3.90
2008,12,21,07,55,-3.90
2008,12,21,07,56,-3.90
2008,12,21,07,57,-3.90
2008,12,21,07,58,-3.90
2008,12,21,07,59,-3.90
2008,12,21,08,00,-3.90
2008,12,21,08,01,-3.90
2008,12,21,08,02,-3.90
2008,12,21,08,03,-3.90
2008,12,21,08,04,-3.90
2008,12,21,08,05,-3.90
2008,12,21,08,06,-3.90
2008,12,21,08,07,-3.90
2008,12,21,08,08,-3.80
2008,12,21,08,09,-3.80
2008,12,21,08,10,-3.80
2008,12,21,08,11,-3.80
2008,12,21,08,12,-3.80
2008,12,21,08,13,-3.80
2008,12,21,08,14,-3.70
2008,12,21,08,15,-3.70
2008,12,21,08,16,-3.70
2008,12,21,08,17,-3.70
2008,12,21,08,18,-3.70
2008,12,21,08,19,-3.70
2008,12,21,08,20,-3.70
2008,12,21,08,21,-3.70
2008,12,21,08,22,-3.70
2008,12,21,08,23,-3.70
2008,12,21,08,24,-3.70
2008,12,21,08,25,-3.70
2008,12,21,08,26,-3.70
2008,12,21,08,27,-3.70
2008,12,21,08,28,-3.70
2008,12,21,08,29,-3.70
2008,12,21,08,30,-3.70
2008,12,21,08,31,-3.70
2008,12,21,08,32,-3.70
2008,12,21,08,33,-3.70
2008,12,21,08,34,-3.70
2008,12,21,08,35,-3.70
2008,12,21,08,36,-3.70
2008,12,21,08,37,-3.70
2008,12,21,08,38,-3.70
2008,12,21,08,39,-3.70
2008,12,21,08,40,-3.70
2008,12,21,08,41,-3.70
2008,12,21,08,42,-3.70
2008,12,21,08,43,-3.70
2008,12,21,08,44,-3.70
2008,12,21,08,45,-3.70
2008,12,21,08,46,-3.70
2008,12,21,08,47,-3.70
2008,12,21,08,48,-3.70
2008,12,21,08,49,-3.70
2008,12,21,08,50,-3.70
2008,12,21,08,51,-3.70
2008,12,21,08,52,-3.70
2008,12,21,08,53,-3.70
2008,12,21,08,54,-3.70
2008,12,21,08,55,-3.70
2008,12,21,08,56,-3.70
2008,12,21,08,57,-3.70
2008,12,21,08,58,-3.70
2008,12,21,08,59,-3.70
2008,12,21,09,00,-3.70
2008,12,21,09,01,-3.70
2008,12,21,09,02,-3.70
2008,12,21,09,03,-3.70
2008,12,21,09,04,-3.70
2008,12,21,09,05,-3.60
2008,12,21,09,06,-3.60
2008,12,21,09,07,-3.60
2008,12,21,09,08,-3.60
2008,12,21,09,09,-3.60
2008,12,21,09,10,-3.60
2008,12,21,09,11,-3.50
2008,12,21,09,12,-3.50
2008,12,21,09,13,-3.50
2008,12,21,09,14,-3.50
2008,12,21,09,15,-3.40
2008,12,21,09,16,-3.40
2008,12,21,09,17,-3.40
2008,12,21,09,18,-3.40
2008,12,21,09,19,-3.40
2008,12,21,09,20,-3.40
2008,12,21,09,21,-3.40
2008,12,21,09,22,-3.40
2008,12,21,09,23,-3.40
2008,12,21,09,24,-3.40
2008,12,21,09,25,-3.40
2008,12,21,09,26,-3.40
2008,12,21,09,27,-3.40
2008,12,21,09,28,-3.40
2008,12,21,09,29,-3.40
2008,12,21,09,30,-3.40
2008,12,21,09,31,-3.40
2008,12,21,09,32,-3.40
2008,12,21,09,33,-3.40
2008,12,21,09,34,-3.40
2008,12,21,09,35,-3.40
2008,12,21,09,36,-3.40
2008,12,21,09,37,-3.30
2008,12,21,09,38,-3.30
2008,12,21,09,39,-3.30
2008,12,21,09,40,-3.30
2008,12,21,09,41,-3.30
2008,12,21,09,42,-3.30
2008,12,21,09,43,-3.30
2008,12,21,09,44,-3.30
2008,12,21,09,45,-3.20
2008,12,21,09,46,-3.20
2008,12,21,09,47,-3.20
2008,12,21,09,48,-3.20
2008,12,21,09,49,-3.20
2008,12,21,09,50,-3.20
2008,12,21,09,51,-3.20
2008,12,21,09,52,-3.20
2008,12,21,09,53,-3.10
2008,12,21,09,54,-3.10
2008,12,21,09,55,-3.10
2008,12,21,09,56,-3.10
2008,12,21,09,57,-3.10
2008,12,21,09,58,-3.10
2008,12,21,09,59,-3.00
2008,12,21,10,00,-3.00
2008,12,21,10,01,-3.00
2008,12,21,10,02,-3.00
2008,12,21,10,03,-3.00
2008,12,21,10,04,-3.00
2008,12,21,10,05,-3.00
2008,12,21,10,06,-3.00
2008,12,21,10,07,-3.00
2008,12,21,10,08,-2.90
2008,12,21,10,09,-2.90
2008,12,21,10,10,-2.90
2008,12,21,10,11,-2.90
2008,12,21,10,12,-2.90
2008,12,21,10,13,-2.90
2008,12,21,10,14,-2.90
2008,12,21,10,15,-2.90
2008,12,21,10,16,-2.80
2008,12,21,10,17,-2.80
2008,12,21,10,18,-2.80
2008,12,21,10,19,-2.80
2008,12,21,10,20,-2.80
2008,12,21,10,21,-2.80
2008,12,21,10,22,-2.70
2008,12,21,10,23,-2.70
2008,12,21,10,24,-2.70
2008,12,21,10,25,-2.70
2008,12,21,10,26,-2.70
2008,12,21,10,27,-2.70
2008,12,21,10,28,-2.70
2008,12,21,10,29,-2.70
2008,12,21,10,30,-2.60
2008,12,21,10,31,-2.60
2008,12,21,10,32,-2.60
2008,12,21,10,33,-2.60
2008,12,21,10,34,-2.60
2008,12,21,10,35,-2.60
2008,12,21,10,36,-2.60
2008,12,21,10,37,-2.70
2008,12,21,10,38,-2.70
2008,12,21,10,39,-2.60
2008,12,21,10,40,-2.60
2008,12,21,10,41,-2.60
2008,12,21,10,42,-2.60
2008,12,21,10,43,-2.60
2008,12,21,10,44,-2.60
2008,12,21,10,45,-2.60
2008,12,21,10,46,-2.60
2008,12,21,10,47,-2.60
2008,12,21,10,48,-2.60
2008,12,21,10,49,-2.60
2008,12,21,10,50,-2.60
2008,12,21,10,51,-2.60
2008,12,21,10,52,-2.60
2008,12,21,10,53,-2.60
2008,12,21,10,54,-2.60
2008,12,21,10,55,-2.60
2008,12,21,10,56,-2.60
2008,12,21,10,57,-2.60
2008,12,21,10,58,-2.60
2008,12,21,10,59,-2.60
2008,12,21,11,00,-2.60
2008,12,21,11,01,-2.60
2008,12,21,11,02,-2.60
2008,12,21,11,03,-2.60
2008,12,21,11,04,-2.60
2008,12,21,11,05,-2.60
2008,12,21,11,06,-2.60
2008,12,21,11,07,-2.60
2008,12,21,11,08,-2.60
2008,12,21,11,09,-2.60
2008,12,21,11,10,-2.60
2008,12,21,11,11,-2.60
2008,12,21,11,12,-2.60
2008,12,21,11,13,-2.60
2008,12,21,11,14,-2.60
2008,12,21,11,15,-2.60
2008,12,21,11,16,-2.60
2008,12,21,11,17,-2.60
2008,12,21,11,18,-2.60
2008,12,21,11,19,-2.60
2008,12,21,11,20,-2.60
2008,12,21,11,21,-2.60
2008,12,21,11,22,-2.60
2008,12,21,11,23,-2.60
2008,12,21,11,24,-2.60
2008,12,21,11,25,-2.60
2008,12,21,11,26,-2.60
2008,12,21,11,27,-2.60
2008,12,21,11,28,-2.60
2008,12,21,11,29,-2.60
2008,12,21,11,30,-2.60
2008,12,21,11,31,-2.50
2008,12,21,11,32,-2.60
2008,12,21,11,33,-2.60
2008,12,21,11,34,-2.50
2008,12,21,11,35,-2.50
2008,12,21,11,36,-2.50
2008,12,21,11,37,-2.50
2008,12,21,11,38,-2.50
2008,12,21,11,39,-2.50
2008,12,21,11,40,-2.50
2008,12,21,11,41,-2.50
2008,12,21,11,42,-2.50
2008,12,21,11,43,-2.50
2008,12,21,11,44,-2.50
2008,12,21,11,45,-2.40
2008,12,21,11,46,-2.40
2008,12,21,11,47,-2.40
2008,12,21,11,48,-2.40
2008,12,21,11,49,-2.40
2008,12,21,11,50,-2.40
2008,12,21,11,51,-2.40
2008,12,21,11,52,-2.40
2008,12,21,11,53,-2.40
2008,12,21,11,54,-2.40
2008,12,21,11,55,-2.40
2008,12,21,11,56,-2.30
2008,12,21,11,57,-2.30
2008,12,21,11,58,-2.30
2008,12,21,11,59,-2.30
2008,12,21,12,00,-2.30
2008,12,21,12,01,-2.30
2008,12,21,12,02,-2.30
2008,12,21,12,03,-2.30
2008,12,21,12,04,-2.30
2008,12,21,12,05,-2.20
2008,12,21,12,06,-2.20
2008,12,21,12,07,-2.20
2008,12,21,12,08,-2.20
2008,12,21,12,09,-2.20
2008,12,21,12,10,-2.20
2008,12,21,12,11,-2.20
2008,12,21,12,12,-2.20
2008,12,21,12,13,-2.10
2008,12,21,12,14,-2.10
2008,12,21,12,15,-2.10
2008,12,21,12,16,-2.10
2008,12,21,12,17,-2.00
2008,12,21,12,18,-2.00
2008,12,21,12,19,-2.00
2008,12,21,12,20,-2.00
2008,12,21,12,21,-2.00
2008,12,21,12,22,-2.00
2008,12,21,12,23,-1.90
2008,12,21,12,24,-1.90
2008,12,21,12,25,-1.90
2008,12,21,12,26,-1.90
2008,12,21,12,27,-1.80
2008,12,21,12,28,-1.80
2008,12,21,12,29,-1.80
2008,12,21,12,30,-1.80
2008,12,21,12,31,-1.80
2008,12,21,12,32,-1.80
2008,12,21,12,33,-1.80
2008,12,21,12,34,-1.80
2008,12,21,12,35,-1.80
2008,12,21,12,36,-1.70
2008,12,21,12,37,-1.70
2008,12,21,12,38,-1.70
2008,12,21,12,39,-1.70
2008,12,21,12,40,-1.70
2008,12,21,12,41,-1.70
2008,12,21,12,42,-1.70
2008,12,21,12,43,-1.70
2008,12,21,12,44,-1.70
2008,12,21,12,45,-1.70
2008,12,21,12,46,-1.70
2008,12,21,12,47,-1.70
2008,12,21,12,48,-1.70
2008,12,21,12,49,-1.70
2008,12,21,12,50,-1.70
2008,12,21,12,51,-1.70
2008,12,21,12,52,-1.70
2008,12,21,12,53,-1.70
2008,12,21,12,54,-1.70
2008,12,21,12,55,-1.70
2008,12,21,12,56,-1.70
2008,12,21,12,57,-1.70
2008,12,21,12,58,-1.70
2008,12,21,12,59,-1.70
2008,12,21,13,00,-1.70
2008,12,21,13,01,-1.70
2008,12,21,13,02,-1.70
2008,12,21,13,03,-1.70
2008,12,21,13,04,-1.70
2008,12,21,13,05,-1.70
2008,12,21,13,06,-1.70
2008,12,21,13,07,-1.70
2008,12,21,13,08,-1.70
2008,12,21,13,09,-1.70
2008,12,21,13,10,-1.70
2008,12,21,13,11,-1.70
2008,12,21,13,12,-1.70
2008,12,21,13,13,-1.70
2008,12,21,13,14,-1.70
2008,12,21,13,15,-1.70
2008,12,21,13,16,-1.70
2008,12,21,13,17,-1.60
2008,12,21,13,18,-1.60
2008,12,21,13,19,-1.60
2008,12,21,13,20,-1.60
2008,12,21,13,21,-1.60
2008,12,21,13,22,-1.60
2008,12,21,13,23,-1.60
2008,12,21,13,24,-1.60
2008,12,21,13,25,-1.60
2008,12,21,13,26,-1.60
2008,12,21,13,27,-1.60
2008,12,21,13,28,-1.60
2008,12,21,13,29,-1.60
2008,12,21,13,30,-1.60
2008,12,21,13,31,-1.50
2008,12,21,13,32,-1.50
2008,12,21,13,33,-1.50
2008,12,21,13,34,-1.50
2008,12,21,13,35,-1.50
2008,12,21,13,36,-1.50
2008,12,21,13,37,-1.50
2008,12,21,13,38,-1.50
2008,12,21,13,39,-1.50
2008,12,21,13,40,-1.50
2008,12,21,13,41,-1.50
2008,12,21,13,42,-1.50
2008,12,21,13,43,-1.50
2008,12,21,13,44,-1.50
2008,12,21,13,45,-1.50
2008,12,21,13,46,-1.60
2008,12,21,13,47,-1.60
2008,12,21,13,48,-1.60
2008,12,21,13,49,-1.60
2008,12,21,13,50,-1.60
2008,12,21,13,51,-1.60
2008,12,21,13,52,-1.60
2008,12,21,13,53,-1.60
2008,12,21,13,54,-1.60
2008,12,21,13,55,-1.60
2008,12,21,13,56,-1.60
2008,12,21,13,57,-1.60
2008,12,21,13,58,-1.60
2008,12,21,13,59,-1.60
2008,12,21,14,00,-1.60
2008,12,21,14,01,-1.60
2008,12,21,14,02,-1.60
2008,12,21,14,03,-1.60
2008,12,21,14,04,-1.60
2008,12,21,14,05,-1.60
2008,12,21,14,06,-1.60
2008,12,21,14,07,-1.60
2008,12,21,14,08,-1.60
2008,12,21,14,09,-1.70
2008,12,21,14,10,-1.70
2008,12,21,14,11,-1.70
2008,12,21,14,12,-1.70
2008,12,21,14,13,-1.70
2008,12,21,14,14,-1.70
2008,12,21,14,15,-1.70
2008,12,21,14,16,-1.70
2008,12,21,14,17,-1.70
2008,12,21,14,18,-1.70
2008,12,21,14,19,-1.70
2008,12,21,14,20,-1.70
2008,12,21,14,21,-1.70
2008,12,21,14,22,-1.70
2008,12,21,14,23,-1.70
2008,12,21,14,24,-1.70
2008,12,21,14,25,-1.70
2008,12,21,14,26,-1.70
2008,12,21,14,27,-1.70
2008,12,21,14,28,-1.70
2008,12,21,14,29,-1.70
2008,12,21,14,30,-1.70
2008,12,21,14,31,-1.70
2008,12,21,14,32,-1.70
2008,12,21,14,33,-1.70
2008,12,21,14,34,-1.70
2008,12,21,14,35,-1.70
2008,12,21,14,36,-1.70
2008,12,21,14,37,-1.70
2008,12,21,14,38,-1.70
2008,12,21,14,39,-1.70
2008,12,21,14,40,-1.70
2008,12,21,14,41,-1.70
2008,12,21,14,42,-1.70
2008,12,21,14,43,-1.70
2008,12,21,14,44,-1.80
2008,12,21,14,45,-1.70
2008,12,21,14,46,-1.80
2008,12,21,14,47,-1.80
2008,12,21,14,48,-1.80
2008,12,21,14,49,-1.80
2008,12,21,14,50,-1.80
2008,12,21,14,51,-1.80
2008,12,21,14,52,-1.80
2008,12,21,14,53,-1.80
2008,12,21,14,54,-1.80
2008,12,21,14,55,-1.80
2008,12,21,14,56,-1.80
2008,12,21,14,57,-1.80
2008,12,21,14,58,-1.80
2008,12,21,14,59,-1.80
2008,12,21,15,00,-1.80
2008,12,21,15,01,-1.80
2008,12,21,15,02,-1.80
2008,12,21,15,03,-1.80
2008,12,21,15,04,-1.80
2008,12,21,15,05,-1.80
2008,12,21,15,06,-1.70
2008,12,21,15,07,-1.70
2008,12,21,15,08,-1.70
2008,12,21,15,09,-1.70
2008,12,21,15,10,-1.70
2008,12,21,15,11,-1.70
2008,12,21,15,12,-1.70
2008,12,21,15,13,-1.70
2008,12,21,15,14,-1.70
2008,12,21,15,15,-1.70
2008,12,21,15,16,-1.70
2008,12,21,15,17,-1.70
2008,12,21,15,18,-1.70
2008,12,21,15,19,-1.70
2008,12,21,15,20,-1.70
2008,12,21,15,21,-1.70
2008,12,21,15,22,-1.70
2008,12,21,15,23,-1.70
2008,12,21,15,24,-1.70
2008,12,21,15,25,-1.70
2008,12,21,15,26,-1.70
2008,12,21,15,27,-1.70
2008,12,21,15,28,-1.70
2008,12,21,15,29,-1.70
2008,12,21,15,30,-1.70
2008,12,21,15,31,-1.70
2008,12,21,15,32,-1.70
2008,12,21,15,33,-1.70
2008,12,21,15,34,-1.70
2008,12,21,15,35,-1.70
2008,12,21,15,36,-1.70
2008,12,21,15,37,-1.80
2008,12,21,15,38,-1.80
2008,12,21,15,39,-1.70
2008,12,21,15,40,-1.80
2008,12,21,15,41,-1.80
2008,12,21,15,42,-1.80
2008,12,21,15,43,-1.80
2008,12,21,15,44,-1.80
2008,12,21,15,45,-1.80
2008,12,21,15,46,-1.80
2008,12,21,15,47,-1.80
2008,12,21,15,48,-1.80
2008,12,21,15,49,-1.80
2008,12,21,15,50,-1.80
2008,12,21,15,51,-1.80
2008,12,21,15,52,-1.80
2008,12,21,15,53,-1.80
2008,12,21,15,54,-1.80
2008,12,21,15,55,-1.80
2008,12,21,15,56,-1.80
2008,12,21,15,57,-1.80
2008,12,21,15,58,-1.80
2008,12,21,15,59,-1.80
2008,12,21,16,00,-1.90
2008,12,21,16,01,-1.90
2008,12,21,16,02,-1.90
2008,12,21,16,03,-1.90
2008,12,21,16,04,-1.90
2008,12,21,16,05,-1.90
2008,12,21,16,06,-1.90
2008,12,21,16,07,-1.90
2008,12,21,16,08,-1.90
2008,12,21,16,09,-1.90
2008,12,21,16,10,-1.90
2008,12,21,16,11,-1.90
2008,12,21,16,12,-1.90
2008,12,21,16,13,-1.90
2008,12,21,16,14,-1.90
2008,12,21,16,15,-1.90
2008,12,21,16,16,-1.90
2008,12,21,16,17,-1.90
2008,12,21,16,18,-1.90
2008,12,21,16,19,-1.90
2008,12,21,16,20,-1.90
2008,12,21,16,21,-1.90
2008,12,21,16,22,-1.90
2008,12,21,16,23,-1.90
2008,12,21,16,24,-1.90
2008,12,21,16,25,-1.90
2008,12,21,16,26,-1.90
2008,12,21,16,27,-1.90
2008,12,21,16,28,-1.90
2008,12,21,16,29,-1.90
2008,12,21,16,30,-1.90
2008,12,21,16,31,-1.90
2008,12,21,16,32,-1.90
2008,12,21,16,33,-1.90
2008,12,21,16,34,-1.90
2008,12,21,16,35,-2.00
2008,12,21,16,36,-2.00
2008,12,21,16,37,-2.00
2008,12,21,16,38,-2.00
2008,12,21,16,39,-2.00
2008,12,21,16,40,-2.00
2008,12,21,16,41,-2.00
2008,12,21,16,42,-2.00
2008,12,21,16,43,-2.00
2008,12,21,16,44,-2.00
2008,12,21,16,45,-2.00
2008,12,21,16,46,-2.00
2008,12,21,16,47,-2.00
2008,12,21,16,48,-2.00
2008,12,21,16,49,-2.00
2008,12,21,16,50,-2.00
2008,12,21,16,51,-2.00
2008,12,21,16,52,-2.00
2008,12,21,16,53,-2.00
2008,12,21,16,54,-2.00
2008,12,21,16,55,-2.00
2008,12,21,16,56,-2.00
2008,12,21,16,57,-2.00
2008,12,21,16,58,-2.00
2008,12,21,16,59,-2.00
2008,12,21,17,00,-2.00
2008,12,21,17,01,-2.00
2008,12,21,17,02,-2.00
2008,12,21,17,03,-2.00
2008,12,21,17,04,-2.00
2008,12,21,17,05,-2.00
2008,12,21,17,06,-2.00
2008,12,21,17,07,-2.00
2008,12,21,17,08,-2.00
2008,12,21,17,09,-2.00
2008,12,21,17,10,-2.00
2008,12,21,17,11,-2.00
2008,12,21,17,12,-2.00
2008,12,21,17,13,-2.00
2008,12,21,17,14,-2.00
2008,12,21,17,15,-2.00
2008,12,21,17,16,-2.00
2008,12,21,17,17,-2.00
2008,12,21,17,18,-2.00
2008,12,21,17,19,-2.00